Warning: Javascript must be enabled to use all the features on this page!


Page Loading - Please Wait...

Click to hideNews Bulletins

Peak Streamflow for the Nation

USGS 07362000 Ouachita River at Camden, AR

Ouachita County, Arkansas
Hydrologic Unit Code 08040102
Latitude  33°35'47", Longitude  92°49'05" NAD83
Drainage area 5,360  square miles
Gage datum 78.04 feet above NAVD88
Output formats
Table
Graph
Tab-separated file
peakfq (watstore) format
Reselect output format
Water
Year
Date Gage
Height
(feet)
Stream-
flow
(cfs)
1929 1928-12-22 35.41 62,400
1930 1930-05-21 40.84 138,000
1931 1930-10-10 24.91 14,500
1932 1932-01-09 38.42 102,000
1933 1933-01-05 32.46 36,700
1934 1934-03-31 33.32 38,800
1935 1935-05-09 39.33 126,000
1936 1935-12-13 25.20 22,700
1937 1937-01-25 41.71 151,000
1938 1938-02-22 41.10 158,000
1939 1939-04-21 37.71 102,000
1940 1940-07-04   24,400
1941 1941-05-11 31.78 37,500
1942 1942-04-12 40.17 124,000
1943 1943-03-17 30.14 39,000
1944 1944-05-05 39.10 144,000
1945 1945-04-03 44.823 243,000
1946 1946-05-29   89,9001
1947 1946-11-13   33,5001
1948 1948-03-06 35.41 57,000
1949 1949-01-30 44.15 185,000
1950 1950-02-17 39.63 110,0005
1951 1951-01-20 34.40 53,4005
1952 1952-04-18 35.45 58,4005
1953 1953-05-16   126,0001,6
1954 1954-05-06 28.78 32,9006
1955 1955-03-25   58,2006
1956 1956-02-21   32,0001,6
1957 1957-05-01 38.92 98,9006
1958 1958-05-05 43.87 181,0006
1959 1959-02-19 33.15 51,6006
1960 1959-12-22 32.19 47,9006
1961 1961-04-04 36.10 65,7006
1962 1962-03-03 35.32 60,7006
1963 1963-03-20 23.13 18,8006
1964 1964-04-27   99,5001,6
1965 1965-02-14   72,8006
1966 1966-04-29   109,0001,6
1967 1967-05-10   60,7001,6
1968 1968-05-17 43.08 183,0006
1969 1969-02-03 39.15 141,0006
1970 1970-03-08 33.05 39,6006
1971 1971-08-09 18.69 13,2006
1972 1971-12-12 23.79 22,2006
1973 1973-04-23 38.50 119,0006
1974 1974-06-12 39.59 138,0006
1975 1975-02-07 34.85 52,0006
1976 1976-03-13 32.15 39,6006
1977 1977-04-02 30.89 36,6006
1978 1978-01-28 26.24 26,0006
1979 1979-05-07 35.39 69,4006
1980 1980-04-17 30.74 37,1006
1981 1981-06-10   37,2006
1982 1982-04-06   24,1006
1983 1982-12-07   95,7006
1984 1984-05-07   64,6006
1985 1985-04-27   70,6006
1986 1985-12-15   48,1006
1987 1987-03-03   42,7006
1988 1987-12-29   173,0006
1989 1989-04-01   78,9006
1990 1990-03-12   113,0006
1991 1991-05-01   60,3006
1992 1992-03-16   53,9006
1993 1992-12-18   28,7006
1994 1993-12-07   90,3006
1995 1995-04-15   33,9006
1996 1996-05-09   21,1006
1997 1997-04-07   52,1006
1998 1998-01-15   44,5006
1999 1999-03-17 34.162 52,7006
2000 2000-06-25   26,1006
2001 2001-02-20 37.55 87,7006
2002 2001-12-21 37.40 88,7006
2003 2003-06-21 32.452 47,7006
2004 2004-06-02 28.48 26,9006
2005 2005-01-11 32.512 42,4006
2006 2006-03-24 29.282 33,5006
2007 2007-01-19 36.11 76,6006
2008 2008-09-07 36.912 94,3006
2009 2009-05-09 37.162 85,0006,R
2010 2009-12-28 40.862 110,0006,R
2011 2011-05-06 32.412 42,6006,R
2012 2012-03-26 32.592 38,6006,R
2013 2013-06-06 28.152 23,2006,R
2014 2013-12-25 31.062 29,8006,R
2015 2015-03-17 36.00 55,6006,R
2016 2016-03-14 36.96 63,6006
2017 2017-05-08 34.96 47,8006
2018 2018-02-26 41.29 112,0006
2019 2019-07-21 36.46 59,3006
2020 2020-02-16 35.72 53,4006
?
  Peak Gage-Height Qualification Codes.
?
  Peak Streamflow Qualification Codes.